Record,Date/Time,10,Freq,Rcvr,Alpha,dTdG,K1,K2,K3,K4,Tnd
     1,03/11/2019 00:04:27,11, 22.000,0, 0.995100,  -499071.65,  0.16543191E+03, -0.15504021E+01,  0.49083044E-02, -0.52730206E-05, 273.10
     2,03/11/2019 00:04:27,11, 22.234,0, 0.997080,  -458725.41,  0.95669020E+02, -0.92484013E+00,  0.30759395E-02, -0.35324078E-05, 237.68
     3,03/11/2019 00:04:27,11, 22.500,0, 0.996000,  -406187.40,  0.25660892E+03, -0.25819544E+01,  0.85485022E-02, -0.92980927E-05, 199.99
     4,03/11/2019 00:04:27,11, 23.000,0, 0.996460,  -386058.84,  0.80322340E+02, -0.69305273E+00,  0.19308656E-02, -0.17107239E-05, 164.45
     5,03/11/2019 00:04:27,11, 23.034,0, 0.997170,  -390667.51,  0.11982393E+02,  0.30545022E-01, -0.60254591E-03,  0.12232425E-05, 163.68
     6,03/11/2019 00:04:27,11, 23.500,0, 0.997550,  -368692.46,  0.99890591E+02, -0.93570264E+00,  0.29523934E-02, -0.31503182E-05, 173.13
     7,03/11/2019 00:04:27,11, 23.834,0, 0.997920,  -376527.84,  0.15890200E+03, -0.15666295E+01,  0.51366914E-02, -0.55998683E-05, 187.39
     8,03/11/2019 00:04:27,11, 24.000,0, 0.996450,  -355334.60,  0.24853953E+03, -0.25184584E+01,  0.84740808E-02, -0.94656113E-05, 196.98
     9,03/11/2019 00:04:27,11, 24.500,0, 0.994550,  -387621.08,  0.83813918E+02, -0.70324691E+00,  0.18990758E-02, -0.16230509E-05, 191.22
    10,03/11/2019 00:04:27,11, 25.000,0, 0.995590,  -365396.41,  0.21502088E+02, -0.16971927E+00,  0.46228154E-03, -0.45763980E-06, 157.87
    11,03/11/2019 00:04:27,11, 25.500,0, 0.997270,  -337460.85,  0.12798899E+03, -0.12846229E+01,  0.42697875E-02, -0.46962759E-05, 139.75
    12,03/11/2019 00:04:27,11, 26.000,0, 0.995340,  -333542.31,  0.74671634E+02, -0.62527339E+00,  0.17409355E-02, -0.16300392E-05, 172.61
    13,03/11/2019 00:04:27,11, 26.234,0, 0.993950,  -322237.97,  0.11519673E+03, -0.10091282E+01,  0.29284075E-02, -0.28221173E-05, 197.57
    14,03/11/2019 00:04:27,11, 26.500,0, 0.993920,  -357546.35, -0.45917317E+02,  0.59695900E+00, -0.23085680E-02,  0.27450808E-05, 230.58
    15,03/11/2019 00:04:27,11, 27.000,0, 0.996280,  -400616.90,  0.18200796E+03, -0.17554716E+01,  0.56489252E-02, -0.60681373E-05, 259.20
    16,03/11/2019 00:04:27,11, 27.500,0, 0.994600,  -367846.26,  0.61900985E+02, -0.37506884E+00,  0.50488044E-03,  0.18075908E-06, 232.52
    17,03/11/2019 00:04:27,11, 28.000,0, 0.994550,  -352210.37,  0.48269270E+02, -0.25583474E+00,  0.27971515E-03,  0.98354210E-07, 237.69
    18,03/11/2019 00:04:27,11, 28.500,0, 0.996090,  -360809.26,  0.24138846E+03, -0.23632637E+01,  0.77497593E-02, -0.85201012E-05, 239.09
    19,03/11/2019 00:04:27,11, 29.000,0, 0.993930,  -358196.95,  0.10568483E+03, -0.95307975E+00,  0.29148993E-02, -0.30519798E-05, 199.62
    20,03/11/2019 00:04:27,11, 29.500,0, 0.991490,  -312519.78, -0.63528261E+02,  0.61795241E+00, -0.19458129E-02,  0.19666623E-05, 107.82
    21,03/11/2019 00:04:27,11, 30.000,0, 0.993370,  -353110.93,  0.15567176E+02, -0.15747733E+00,  0.59272243E-03, -0.80965628E-06, 119.17
Record,Date/Time,30,TkBB(K),Tnd(K) Ch  22.000,R Ch  22.000,Tnd(K) Ch  22.234,R Ch  22.234,Tnd(K) Ch  22.500,R Ch  22.500,Tnd(K) Ch  23.000,R Ch  23.000,Tnd(K) Ch  23.034,R Ch  23.034,Tnd(K) Ch  23.500,R Ch  23.500,Tnd(K) Ch  23.834,R Ch  23.834,Tnd(K) Ch  24.000,R Ch  24.000,Tnd(K) Ch  24.500,R Ch  24.500,Tnd(K) Ch  25.000,R Ch  25.000,Tnd(K) Ch  25.500,R Ch  25.500,Tnd(K) Ch  26.000,R Ch  26.000,Tnd(K) Ch  26.234,R Ch  26.234,Tnd(K) Ch  26.500,R Ch  26.500,Tnd(K) Ch  27.000,R Ch  27.000,Tnd(K) Ch  27.500,R Ch  27.500,Tnd(K) Ch  28.000,R Ch  28.000,Tnd(K) Ch  28.500,R Ch  28.500,Tnd(K) Ch  29.000,R Ch  29.000,Tnd(K) Ch  29.500,R Ch  29.500,Tnd(K) Ch  30.000,R Ch  30.000
Record,Date/Time,20,TkBB(K),Tnd(K) Ch  1,R Ch  1,Tnd(K) Ch  2,R Ch  2,Tnd(K) Ch  3,R Ch  3,Tnd(K) Ch  4,R Ch  4,Tnd(K) Ch  5,R Ch  5
    22,03/11/2019 00:07:33,31,301.224, 272.741, 0.997224, 237.475, 0.999696, 200.532, 0.999499, 164.623, 0.998664, 163.998, 0.998903, 173.159, 0.999443, 187.579, 0.999177, 197.227, 1.000000, 191.258, 0.997705, 158.002, 0.999774, 139.879, 0.999545, 172.549, 0.998927, 197.560, 0.997629, 230.272, 0.998875, 259.634, 0.998711, 232.822, 0.998965, 237.507, 0.998476, 239.572, 0.999699, 200.105, 0.998416, 108.189, 0.999237, 119.211, 0.999509
    23,03/11/2019 00:10:32,31,301.304, 272.698, 0.997789, 237.316, 0.999837, 199.704, 0.999752, 164.177, 0.999146, 163.392, 0.998948, 172.801, 0.999650, 187.357, 0.999318, 196.784, 1.000000, 190.826, 0.998174, 157.949, 0.999788, 139.655, 0.998877, 172.328, 0.999387, 197.683, 0.997739, 230.241, 0.999187, 259.145, 0.999282, 232.368, 0.999607, 237.750, 0.999159, 239.156, 0.999422, 199.656, 0.997763, 108.080, 0.999206, 119.266, 0.999688
    24,03/11/2019 00:13:31,31,301.165, 272.558, 0.996677, 236.913, 0.999440, 199.917, 0.998949, 164.391, 0.997720, 163.468, 0.998598, 172.941, 0.998942, 187.448, 0.999213, 196.743, 1.000000, 191.091, 0.997171, 158.031, 0.999112, 139.864, 0.998901, 172.617, 0.999032, 197.601, 0.996675, 230.534, 0.999120, 259.286, 0.999306, 232.426, 0.999517, 237.559, 0.998052, 239.432, 0.998940, 199.457, 0.998387, 107.887, 0.999386, 119.151, 0.999762
    25,03/11/2019 00:16:31,31,301.185, 273.821, 0.997638, 237.878, 0.999517, 200.806, 0.999132, 164.681, 0.998728, 164.026, 0.998250, 173.832, 0.999344, 188.145, 0.999469, 197.422, 1.000000, 191.824, 0.998098, 158.340, 0.999185, 140.186, 0.999295, 173.038, 0.999524, 198.043, 0.996960, 230.728, 0.999375, 259.580, 0.998532, 232.873, 0.999246, 237.452, 0.998192, 239.630, 0.999668, 199.879, 0.998706, 107.851, 0.999889, 119.251, 0.999931
    26,03/11/2019 00:19:29,31,301.219, 272.378, 0.996731, 237.612, 0.999497, 199.840, 0.999365, 164.646, 0.998928, 163.463, 0.998923, 172.723, 0.999300, 187.191, 0.999177, 196.869, 1.000000, 191.490, 0.997472, 157.942, 0.999758, 139.759, 0.998662, 172.573, 0.999354, 197.447, 0.997298, 230.185, 0.998658, 258.861, 0.999272, 232.262, 0.999207, 237.686, 0.999070, 239.002, 0.999474, 199.571, 0.998906, 107.860, 0.999082, 119.219, 0.999062
    27,03/11/2019 00:22:29,31,301.283, 272.497, 0.995493, 236.689, 0.999372, 199.658, 0.998614, 163.933, 0.997708, 163.219, 0.997542, 172.549, 0.998103, 186.993, 0.997832, 196.477, 1.000000, 191.057, 0.994209, 157.621, 0.999199, 139.840, 0.997204, 172.417, 0.998389, 197.252, 0.995531, 230.057, 0.997745, 259.333, 0.998565, 232.004, 0.998385, 237.193, 0.998751, 238.992, 0.998803, 199.423, 0.998245, 107.768, 0.998148, 119.271, 0.999664
    28,03/11/2019 00:25:27,31,301.319, 273.433, 0.998080, 238.066, 0.999765, 200.860, 0.999875, 164.748, 0.999022, 164.120, 0.999109, 173.308, 0.999539, 188.105, 0.999652, 197.467, 1.000000, 191.563, 0.998101, 158.277, 0.999831, 140.394, 0.998087, 172.668, 0.999806, 197.959, 0.998924, 230.903, 0.998987, 259.535, 0.999299, 232.912, 0.998701, 237.788, 0.999250, 239.762, 0.999264, 200.208, 0.998845, 108.084, 0.998768, 119.369, 0.999527
    29,03/11/2019 00:28:26,31,301.279, 271.687, 0.997204, 236.908, 0.999712, 199.735, 0.999860, 164.387, 0.999052, 163.557, 0.998924, 173.004, 0.999076, 187.082, 0.999360, 196.982, 1.000000, 190.983, 0.995920, 157.777, 0.999551, 139.820, 0.997829, 172.345, 0.999561, 197.338, 0.997628, 230.288, 0.998450, 259.240, 0.998723, 232.390, 0.999438, 237.737, 0.998340, 239.318, 0.999186, 199.517, 0.998830, 107.915, 0.999237, 119.162, 0.999718
    30,03/11/2019 00:31:25,31,301.153, 272.867, 0.998397, 237.787, 0.999793, 200.207, 0.999712, 164.475, 0.999136, 163.691, 0.999496, 173.136, 0.999620, 187.254, 0.999591, 197.040, 1.000000, 191.385, 0.997425, 158.013, 0.999885, 139.961, 0.998624, 172.505, 0.999110, 197.860, 0.998132, 230.360, 0.999169, 259.312, 0.999024, 232.613, 0.999542, 237.555, 0.998934, 239.180, 0.999648, 200.012, 0.998978, 107.788, 0.999469, 119.050, 0.999900
    31,03/11/2019 00:34:24,31,301.183, 272.854, 0.996473, 237.593, 0.998594, 200.284, 0.998846, 164.134, 0.997766, 163.595, 0.998049, 172.845, 0.997553, 187.335, 0.997845, 196.907, 1.000000, 191.204, 0.994644, 157.916, 0.998382, 139.976, 0.996231, 172.356, 0.997625, 197.740, 0.996272, 230.500, 0.996055, 259.108, 0.997323, 232.552, 0.996652, 237.490, 0.996241, 239.149, 0.997130, 199.861, 0.996528, 107.821, 0.996382, 119.256, 0.998343
    32,03/11/2019 00:37:23,31,301.267, 272.300, 0.998128, 236.827, 0.999409, 199.593, 0.999361, 164.244, 0.998763, 163.462, 0.998364, 172.851, 0.998534, 187.298, 0.997954, 196.782, 1.000000, 191.354, 0.996583, 158.059, 0.999502, 139.838, 0.997064, 172.512, 0.999077, 197.396, 0.998229, 230.156, 0.998234, 259.407, 0.999309, 232.551, 0.999059, 237.161, 0.998674, 238.878, 0.998826, 199.651, 0.998996, 107.790, 0.999036, 119.231, 0.999464
    33,03/11/2019 00:40:22,31,301.348, 274.025, 0.998403, 238.923, 0.999530, 201.218, 0.999857, 165.177, 0.999020, 164.382, 0.998871, 173.508, 0.998509, 187.875, 0.998701, 197.435, 1.000000, 191.621, 0.996009, 158.190, 0.999480, 140.284, 0.996573, 172.859, 0.999020, 198.047, 0.997702, 230.894, 0.998320, 259.841, 0.999388, 232.682, 0.998576, 237.970, 0.999234, 239.395, 0.999215, 199.733, 0.999004, 108.203, 0.998315, 119.449, 0.999356
    34,03/11/2019 00:43:21,31,301.357, 272.369, 0.997121, 236.946, 0.998059, 200.122, 0.998783, 164.447, 0.996826, 163.504, 0.997857, 172.831, 0.997551, 187.342, 0.996983, 197.047, 1.000000, 190.843, 0.995584, 157.610, 0.998388, 139.657, 0.993794, 172.468, 0.996056, 197.348, 0.995286, 230.099, 0.996725, 258.845, 0.996807, 232.031, 0.996940, 237.039, 0.996847, 238.821, 0.996630, 199.337, 0.997796, 107.600, 0.996437, 119.204, 0.997264
    35,03/11/2019 00:46:20,31,301.332, 271.951, 0.994171, 236.857, 0.996612, 199.655, 0.996903, 163.891, 0.994451, 163.175, 0.995102, 172.528, 0.995015, 186.921, 0.993231, 196.612, 1.000000, 190.579, 0.990924, 157.450, 0.996297, 139.802, 0.991317, 172.261, 0.994342, 197.533, 0.993045, 229.770, 0.993931, 258.771, 0.995345, 231.920, 0.995556, 237.111, 0.996331, 238.651, 0.995330, 199.286, 0.993491, 107.458, 0.993514, 118.871, 0.995775
    36,03/11/2019 00:49:19,31,301.183, 272.393, 0.996896, 237.066, 0.998909, 199.762, 0.999031, 164.136, 0.997422, 163.333, 0.997847, 172.910, 0.998341, 187.192, 0.997527, 196.786, 1.000000, 191.166, 0.993925, 157.570, 0.999016, 139.680, 0.994911, 172.433, 0.997961, 197.477, 0.996256, 230.288, 0.996381, 259.187, 0.998124, 232.619, 0.997824, 237.717, 0.996920, 239.193, 0.996633, 199.722, 0.997551, 107.746, 0.997359, 119.079, 0.999112
    37,03/11/2019 00:52:18,31,300.981, 272.048, 0.997302, 236.522, 0.999318, 199.522, 0.999529, 163.774, 0.998619, 163.336, 0.998346, 172.382, 0.999338, 187.084, 0.998490, 196.634, 1.000000, 190.366, 0.996167, 157.452, 0.999033, 139.390, 0.996871, 171.975, 0.998734, 197.173, 0.996833, 229.589, 0.997768, 258.736, 0.998670, 231.810, 0.998368, 236.694, 0.998332, 238.559, 0.999037, 199.269, 0.998540, 107.701, 0.998320, 118.948, 0.999290
    38,03/11/2019 00:55:17,31,300.757, 272.834, 0.997414, 237.761, 0.999653, 200.442, 0.999536, 164.498, 0.998553, 164.028, 0.998438, 173.129, 0.999392, 187.629, 0.999206, 196.868, 1.000000, 191.270, 0.997378, 158.052, 0.999179, 140.011, 0.998181, 172.532, 0.998937, 197.772, 0.998202, 230.345, 0.998359, 259.520, 0.998650, 232.723, 0.999462, 237.201, 0.998496, 239.254, 0.999489, 199.757, 0.998103, 107.955, 0.999263, 119.160, 0.999526
    39,03/11/2019 00:58:16,31,300.726, 272.712, 0.997631, 237.656, 0.999388, 200.399, 0.999555, 164.204, 0.998649, 163.810, 0.998579, 172.996, 0.999022, 187.217, 0.999351, 197.160, 1.000000, 191.069, 0.997191, 158.009, 0.999932, 139.781, 0.998605, 172.395, 0.999647, 197.506, 0.998257, 230.240, 0.998829, 259.063, 0.999522, 232.251, 0.999676, 236.887, 0.999145, 238.828, 0.999636, 199.726, 0.999249, 107.623, 0.999185, 119.104, 0.999854
    40,03/11/2019 01:01:15,31,300.725, 272.292, 0.997915, 237.757, 0.998729, 200.433, 0.999025, 164.519, 0.998288, 163.839, 0.998988, 173.023, 0.999563, 187.342, 0.999533, 197.139, 1.000000, 191.125, 0.998416, 157.964, 0.999641, 139.908, 0.999496, 172.280, 0.999552, 197.401, 0.998650, 230.217, 0.999764, 259.348, 0.999245, 232.538, 0.999823, 237.188, 0.999518, 238.687, 0.999472, 199.301, 0.999576, 107.722, 0.999561, 118.980, 0.999564
    41,03/11/2019 01:04:15,31,300.737, 272.402, 0.997099, 237.405, 0.998760, 199.784, 0.998912, 164.484, 0.998066, 163.353, 0.998447, 172.823, 0.998558, 187.289, 0.998560, 196.779, 1.000000, 191.106, 0.995706, 157.832, 0.998667, 139.854, 0.996898, 172.379, 0.999258, 197.222, 0.997692, 230.068, 0.998314, 258.753, 0.999391, 232.277, 0.998903, 237.226, 0.998210, 239.032, 0.998452, 199.290, 0.998240, 107.596, 0.998124, 119.123, 0.999419
    42,03/11/2019 01:07:13,31,300.780, 272.588, 0.997371, 236.769, 0.999610, 199.682, 0.999422, 164.185, 0.998797, 163.501, 0.998721, 172.880, 0.999331, 186.920, 0.999393, 196.695, 1.000000, 190.814, 0.996749, 157.603, 0.999542, 139.790, 0.998222, 172.378, 0.999185, 197.250, 0.997615, 229.996, 0.998456, 258.846, 0.998555, 232.153, 0.999307, 237.022, 0.997839, 238.829, 0.999491, 199.275, 0.998167, 107.668, 0.999405, 118.891, 0.999594
    43,03/11/2019 01:10:12,31,300.709, 273.482, 0.996685, 238.389, 0.998773, 201.052, 0.998439, 164.822, 0.998102, 164.264, 0.997485, 173.510, 0.998948, 188.126, 0.999300, 197.577, 1.000000, 191.713, 0.997488, 158.392, 0.998704, 140.267, 0.999516, 172.901, 0.998763, 197.957, 0.996753, 230.936, 0.999034, 259.638, 0.998838, 232.949, 0.999104, 237.612, 0.997281, 239.555, 0.999435, 199.938, 0.997555, 108.304, 0.999570, 119.638, 0.999570
    44,03/11/2019 01:13:11,31,300.625, 273.360, 0.994400, 237.649, 0.998252, 200.563, 0.997955, 165.144, 0.996794, 164.124, 0.997023, 173.270, 0.998361, 187.921, 0.998256, 197.344, 1.000000, 191.633, 0.996158, 158.170, 0.998577, 140.104, 0.998808, 172.824, 0.998865, 197.989, 0.995393, 230.762, 0.998197, 259.306, 0.997671, 232.493, 0.998502, 237.769, 0.996978, 239.737, 0.998103, 200.083, 0.997071, 107.947, 0.998797, 119.218, 0.999021
    45,03/11/2019 01:16:10,31,300.504, 273.020, 0.998017, 237.722, 0.999115, 200.795, 0.998404, 164.951, 0.998751, 164.025, 0.998295, 173.038, 0.999384, 187.808, 0.999595, 197.512, 1.000000, 191.353, 0.998154, 157.997, 0.998872, 140.105, 0.999382, 173.016, 0.999071, 197.680, 0.997229, 230.561, 0.999342, 259.537, 0.997578, 232.586, 0.998837, 237.574, 0.998712, 239.639, 0.999682, 199.900, 0.999024, 108.072, 0.999300, 119.180, 0.999306
    46,03/11/2019 01:19:09,31,300.429, 272.738, 0.996374, 238.091, 0.999307, 200.360, 0.999432, 164.852, 0.998709, 163.879, 0.998628, 173.401, 0.999287, 188.066, 0.998844, 197.681, 1.000000, 191.583, 0.996927, 158.068, 0.999427, 140.125, 0.999016, 172.763, 0.999542, 197.696, 0.997980, 230.276, 0.999313, 259.539, 0.998657, 232.440, 0.999214, 237.242, 0.998633, 239.154, 0.999464, 199.854, 0.999413, 107.953, 0.999459, 119.450, 0.999817
    47,03/11/2019 01:22:08,31,300.346, 273.141, 0.997076, 237.942, 0.999315, 200.011, 0.999327, 164.513, 0.997870, 163.438, 0.998210, 172.661, 0.998277, 187.253, 0.998591, 196.956, 1.000000, 191.158, 0.994877, 157.937, 0.999037, 139.743, 0.997737, 172.608, 0.998874, 197.360, 0.997202, 229.991, 0.998473, 259.382, 0.997375, 232.402, 0.997760, 237.158, 0.998064, 238.703, 0.998887, 199.157, 0.997932, 107.559, 0.997830, 118.932, 0.999434
    48,03/11/2019 01:25:07,31,300.305, 273.794, 0.998175, 237.973, 0.999757, 200.978, 0.999744, 165.166, 0.998811, 164.409, 0.999513, 173.776, 0.999608, 188.151, 0.999311, 197.887, 1.000000, 191.678, 0.997588, 158.313, 0.999602, 140.139, 0.998790, 172.868, 0.999746, 197.785, 0.998682, 230.544, 0.999316, 259.896, 0.999334, 232.612, 0.999687, 237.635, 0.998895, 239.348, 0.999262, 199.743, 0.999458, 107.865, 0.999402, 119.171, 0.999758
    49,03/11/2019 01:28:07,31,300.245, 272.650, 0.998406, 237.745, 0.999666, 200.311, 0.999651, 164.690, 0.999037, 163.681, 0.999340, 172.808, 0.999544, 187.074, 0.999394, 197.157, 1.000000, 190.935, 0.998310, 157.899, 0.999790, 139.714, 0.998446, 172.486, 0.999296, 197.441, 0.997941, 230.207, 0.999176, 259.038, 0.999105, 232.327, 0.999585, 237.415, 0.998869, 238.819, 0.999317, 199.347, 0.998786, 107.783, 0.999714, 119.005, 0.999948
    50,03/11/2019 01:31:07,31,300.196, 273.065, 0.996957, 237.745, 0.999546, 200.458, 0.999475, 164.325, 0.998664, 163.914, 0.998419, 173.172, 0.998770, 187.385, 0.999141, 196.947, 1.000000, 191.220, 0.996707, 157.931, 0.999510, 139.771, 0.998261, 172.661, 0.999502, 197.529, 0.996719, 230.326, 0.998344, 258.787, 0.999225, 232.381, 0.998981, 237.497, 0.998869, 239.002, 0.999318, 199.431, 0.998708, 107.746, 0.999336, 119.169, 0.999784
    51,03/11/2019 01:34:06,31,300.113, 271.657, 0.997531, 236.675, 0.999351, 199.267, 0.999511, 164.397, 0.998566, 163.206, 0.998276, 172.569, 0.999110, 187.105, 0.999191, 196.386, 1.000000, 190.248, 0.996932, 157.625, 0.999598, 139.441, 0.999127, 172.118, 0.999166, 197.106, 0.997702, 229.872, 0.999070, 258.783, 0.998338, 232.262, 0.999722, 236.838, 0.998466, 238.671, 0.999535, 199.477, 0.997636, 107.804, 0.999728, 119.069, 0.999686
    52,03/11/2019 01:37:05,31,300.054, 272.817, 0.997397, 237.161, 0.998927, 200.060, 0.999523, 164.482, 0.998613, 163.451, 0.998938, 172.876, 0.999280, 187.445, 0.999297, 197.042, 1.000000, 190.999, 0.997408, 157.955, 0.999324, 139.902, 0.998791, 172.329, 0.999154, 197.198, 0.997838, 230.452, 0.999223, 259.761, 0.998915, 232.516, 0.999489, 237.755, 0.999046, 238.878, 0.999137, 199.625, 0.997811, 107.769, 0.999272, 119.311, 0.999728
    53,03/11/2019 01:40:04,31,300.019, 272.135, 0.996245, 236.726, 0.998871, 199.316, 0.998767, 163.959, 0.998042, 163.330, 0.997531, 172.277, 0.998520, 186.792, 0.998342, 196.456, 1.000000, 190.700, 0.996607, 157.156, 0.995837, 139.567, 0.997855, 171.867, 0.995695, 196.514, 0.993468, 229.114, 0.995131, 258.293, 0.992435, 231.583, 0.994307, 236.075, 0.991934, 237.904, 0.994605, 198.720, 0.989986, 107.315, 0.995914, 118.646, 0.993899
    54,03/11/2019 01:43:04,31,299.979, 273.210, 0.997065, 237.818, 0.999464, 200.136, 0.999238, 164.551, 0.998655, 164.157, 0.998347, 173.254, 0.999162, 187.304, 0.999371, 197.193, 1.000000, 191.490, 0.998001, 158.023, 0.999598, 139.893, 0.998853, 172.601, 0.999325, 197.715, 0.997226, 230.296, 0.998781, 259.576, 0.998727, 232.450, 0.999134, 237.870, 0.998595, 239.386, 0.999689, 199.806, 0.998231, 107.785, 0.999792, 119.425, 0.999008
    55,03/11/2019 01:46:03,31,299.914, 273.300, 0.998577, 238.067, 0.999800, 200.338, 0.999506, 164.564, 0.999234, 163.931, 0.999297, 173.159, 0.999802, 187.612, 0.999721, 197.524, 1.000000, 191.488, 0.998106, 158.263, 0.999881, 140.216, 0.998737, 172.641, 0.999762, 197.711, 0.997736, 230.548, 0.999445, 259.595, 0.999309, 232.611, 0.999498, 237.459, 0.998979, 239.539, 0.999515, 199.726, 0.999016, 107.855, 0.998954, 119.212, 0.999733
    56,03/11/2019 01:49:02,31,299.788, 273.433, 0.997573, 238.213, 0.999626, 200.148, 0.999541, 164.995, 0.998929, 164.181, 0.999422, 173.371, 0.999724, 188.135, 0.999728, 197.489, 1.000000, 191.330, 0.998338, 158.167, 0.999672, 140.072, 0.999430, 172.605, 0.999663, 197.969, 0.998194, 230.281, 0.999348, 259.498, 0.999617, 232.774, 0.999832, 237.732, 0.999233, 239.061, 0.999630, 199.678, 0.997810, 107.937, 0.999553, 119.303, 0.999813
    57,03/11/2019 01:52:01,31,299.587, 272.879, 0.997624, 237.672, 0.999270, 200.409, 0.999189, 164.514, 0.998579, 163.725, 0.998761, 173.323, 0.999406, 187.648, 0.999331, 197.366, 1.000000, 191.284, 0.997148, 157.904, 0.999172, 139.881, 0.998831, 172.527, 0.999411, 197.690, 0.996878, 230.647, 0.999151, 259.359, 0.998946, 232.529, 0.999308, 237.590, 0.998266, 238.859, 0.999298, 199.718, 0.998491, 107.763, 0.999660, 119.179, 0.999676
    58,03/11/2019 01:55:01,31,299.418, 272.686, 0.998100, 237.295, 0.999801, 200.346, 0.999718, 164.266, 0.999017, 163.330, 0.999083, 172.816, 0.999434, 187.581, 0.999725, 196.874, 1.000000, 191.079, 0.997966, 157.938, 0.999566, 139.709, 0.999305, 172.336, 0.999008, 197.082, 0.998169, 230.031, 0.999202, 258.998, 0.997980, 232.281, 0.999060, 236.909, 0.998230, 239.078, 0.999715, 199.487, 0.998665, 107.800, 0.999840, 119.035, 0.999976
    59,03/11/2019 01:58:00,31,299.263, 273.103, 0.997512, 237.492, 0.999530, 200.095, 0.999796, 164.544, 0.998789, 163.608, 0.998984, 172.970, 0.999142, 187.301, 0.999449, 197.160, 1.000000, 190.883, 0.997248, 157.688, 0.999670, 139.707, 0.998723, 172.319, 0.999627, 197.442, 0.998147, 229.948, 0.999191, 259.075, 0.999337, 232.266, 0.999488, 236.957, 0.998942, 239.064, 0.999469, 199.334, 0.998681, 107.809, 0.998958, 118.901, 0.999855
    60,03/11/2019 02:00:59,31,299.112, 272.729, 0.998005, 237.700, 0.999770, 200.474, 0.999660, 164.346, 0.998845, 163.729, 0.998791, 172.973, 0.999288, 187.747, 0.999460, 197.077, 1.000000, 191.420, 0.997345, 158.114, 0.999466, 139.743, 0.998857, 172.615, 0.999006, 197.621, 0.998203, 230.398, 0.999127, 259.026, 0.998850, 232.484, 0.999503, 237.477, 0.999038, 239.264, 0.999743, 199.647, 0.998130, 107.758, 0.999449, 119.076, 0.999794
    61,03/11/2019 02:03:58,31,298.905, 272.971, 0.997778, 237.506, 0.999743, 200.374, 0.999601, 164.672, 0.998984, 163.666, 0.999019, 173.413, 0.999379, 187.593, 0.999594, 197.461, 1.000000, 191.312, 0.996948, 157.846, 0.999518, 139.674, 0.998859, 172.722, 0.999183, 197.515, 0.997433, 230.150, 0.999343, 259.233, 0.999443, 232.507, 0.999095, 237.481, 0.998778, 239.535, 0.999820, 199.720, 0.998642, 107.822, 0.999737, 118.882, 0.999915
    62,03/11/2019 02:06:58,31,298.744, 272.371, 0.998601, 237.243, 0.999712, 199.843, 0.999793, 164.276, 0.999106, 163.380, 0.999165, 172.566, 0.999521, 186.887, 0.999521, 196.778, 1.000000, 190.711, 0.997170, 157.872, 0.999633, 139.506, 0.999112, 172.469, 0.999566, 197.292, 0.997364, 229.802, 0.998959, 259.027, 0.999006, 232.448, 0.999301, 237.088, 0.998365, 239.024, 0.999115, 199.500, 0.998854, 107.703, 0.999222, 118.939, 0.999816
    63,03/11/2019 02:09:58,31,298.596, 272.951, 0.998268, 237.656, 0.999624, 200.349, 0.999541, 164.677, 0.998685, 163.862, 0.998707, 172.916, 0.999226, 187.443, 0.999068, 196.988, 1.000000, 191.325, 0.997628, 157.837, 0.999280, 139.888, 0.998402, 172.918, 0.999280, 197.553, 0.997318, 230.621, 0.999150, 259.403, 0.999325, 232.646, 0.999404, 237.483, 0.998990, 239.314, 0.999200, 199.791, 0.998337, 107.894, 0.999393, 119.250, 0.999752
    64,03/11/2019 02:12:58,31,298.361, 272.803, 0.997481, 238.026, 0.999479, 200.746, 0.999455, 164.694, 0.998585, 164.201, 0.998793, 173.449, 0.999441, 187.642, 0.999445, 197.028, 1.000000, 191.527, 0.996955, 158.152, 0.999022, 139.919, 0.998859, 172.548, 0.999508, 197.606, 0.998237, 230.421, 0.999202, 259.563, 0.999194, 232.240, 0.999214, 237.605, 0.998808, 239.450, 0.999317, 199.645, 0.998004, 107.913, 0.998635, 119.397, 0.999102
    65,03/11/2019 02:15:57,31,298.082, 273.183, 0.997192, 237.832, 0.999364, 200.575, 0.999163, 164.807, 0.997496, 164.099, 0.997476, 173.434, 0.998161, 187.641, 0.999016, 197.380, 1.000000, 191.653, 0.995994, 158.017, 0.998851, 140.058, 0.997634, 172.838, 0.998213, 197.725, 0.996439, 230.693, 0.996949, 260.066, 0.997494, 233.188, 0.998669, 238.395, 0.997794, 239.643, 0.999044, 200.044, 0.996845, 107.950, 0.998185, 119.444, 0.999305
    66,03/11/2019 02:18:57,31,297.817, 272.268, 0.996665, 237.079, 0.999240, 200.231, 0.999381, 164.381, 0.997991, 163.336, 0.997941, 172.743, 0.998339, 187.242, 0.998719, 197.174, 1.000000, 190.999, 0.996298, 157.805, 0.999197, 139.884, 0.997137, 172.785, 0.998764, 197.570, 0.997522, 230.289, 0.998726, 259.758, 0.999018, 232.550, 0.998713, 237.786, 0.997877, 238.976, 0.998823, 199.870, 0.998321, 107.806, 0.998561, 119.455, 0.999160
    67,03/11/2019 02:21:56,31,297.566, 273.934, 0.998553, 238.703, 0.999740, 200.888, 0.999826, 165.042, 0.999348, 164.165, 0.999700, 173.599, 0.999857, 188.173, 0.999671, 197.757, 1.000000, 192.138, 0.998502, 158.577, 0.999682, 140.301, 0.998943, 173.118, 0.999237, 198.514, 0.998441, 231.160, 0.998620, 260.321, 0.998505, 233.631, 0.998062, 238.453, 0.996983, 240.482, 0.997778, 200.388, 0.994718, 108.503, 0.997253, 119.743, 0.996130